Погода в Виннице

Погода в Виннице : погода сейчас, прогноз погоды и архив. Всё, что Вы хотите узнать о погоде в Виннице!

Хотите узнать прогноз погоды в Виннице? Тогда Вам сюда: Погода в Виннице

Поиск расширенной информации на нашем сайте:

Другие новости

Новости СМИ2

Главная страница сайта

Новости сайта

02.10.2013

Напоминаем, что на нашем новом сайте вы можете получить высокодетализированные прогнозы погоды по пунктам России, СНГ и мира (включающие важные для авиации метеовеличины, такие как направление и скорость ветра, видимость, явления погоды, количество и форма облачности, нижняя и верхняя граница облачности), а также ознакомиться с разнообразными материалами по авиационной метеорологии и подборкой полезных ссылок на эту тему.

Сайт Метеоцентр.Азия посвящён разработке технологий оптимизации авиаметеорологического обслуживания, включая проектирование и перспективное создание нескольких автоматизированных авиаметеорологических систем:
- система выпуска высокодетальных прогностических карт явлений погоды для нижнего воздушного пространства по России и ближнему зарубежью;
- система верификации прогнозов TAF (выпускаемых синоптиками официальных АМСГ РФ и ближнего зарубежья) и AUTOTAF (выпускаемых сайтом Метеоцентр.Азия) - выявление ошибок, онлайн-сопоставление с фактической погодой METAR, автоматическое внесение коррективов в прогнозы при резком отклонении фактической погоды от прогноза, подсчёт оправдываемости прогнозов по элементам и в целом;
- система обработки, анализа и отображения авиаметеорологической информации для применения провайдерами метеорологической информации.


Погода в Виннице - сегодня

Время (UTC), дата Ветер
(°,м/с) 
Видим.   Явления Облачность Т
(°С)
Тd
(°С)
f(%) Тe
(°С)
Pmin
(гПа)
dP
(гПа)
Po
(мм)
O2
(г/м3)
Тmin Tmax R s Состояние
почвы
09 16.02.17 тихо ()   1800 м  дымка{туман}  9/6 150 м средняя 
[St|Ac trans]
-4.6 -4.9 98 -5  1035.3  -1  748  307           
12 16.02.17 120 (ЮВ) 10 км  {туман}  3/0 средняя 
[Ac trans]
-2.3 -4.2 87 -4  1033.6  -1.3  747  304           
15 16.02.17 180 (Ю) 10 км    4/0 средняя 
[Ac trans]
-0.6 -5.1 72 -2  1031.7  -1.6  746  302           
18 16.02.17 200 (Ю) 10 км    8/4 600 м средняя 
[Sc|Ac trans]
-4 -5.5 89 -6  1031.4  -0.7  745  305    +0.2       
21 16.02.17 210 (ЮЗ) 4000 м  дымка  ясно 
-7.8 -8.8 93 -12  1030.3  -1.6  744  309           
00 17.02.17 210 (ЮЗ) 3000 м  дымка  5/0 средняя 
[Ac trans]
-8 -8.6 95 -11  1028.9  -1.4  743  309           
03 17.02.17 230 (ЮЗ) 4000 м  дымка  3/0 верхняя 
[Ci fib]
-6.4 -7.2 94 -10  1026.9  -1.7  742  307           
06 17.02.17 230 (ЮЗ) 4000 м  дымка  8/0 средняя, верхняя 
[Ac trans|Ci fib]
-6.6 -7.4 94 -11  1025.8  -1.1  741  307  -8.4      32  неравномерный
мокрый или
старый снег
100% 
09 17.02.17 190 (Ю) 4000 м  дымка  9/0 средняя 
[Ac trans]
-4.3 -6.2 87 -7  1024.4  -1  740  304           
12 17.02.17 190 (Ю) 10 км    9/0 средняя 
[Ac trans]
-1.7 -4.8 79 -3  1022.6  -1.4  739  300           
15 17.02.17 180 (Ю) 10 км    10/0 средняя 
[Ac und]
-3.4 -5.5 85 -6  1021.6  -1.2  738  302           
18 17.02.17 190 (Ю) 4000 м  дымка  9/0 средняя 
[Ac trans]
-4.6 -5.9 91 -6  1021.7  -0.1  738  303    -1.2       
21 17.02.17 200 (Ю) 4000 м  дымка  10/0 средняя 
[Ac und]
-4.7 -5.7 93 -6  1021.2  -0.5  738  303           
00 18.02.17 210 (ЮЗ) 4000 м  дымка  10/0 средняя 
[Ac und]
-3.8 -5 91 -6  1020.5  -0.5  737  302           
03 18.02.17 220 (ЮЗ) 2800 м  слаб. ливневой снег  10/5 600 м кучево-дожд., средняя 
[Cb cap|Ac und]
-2.2 -3.1 94 -3  1019.7  -0.6  737  300           
06 18.02.17 220 (ЮЗ) 3000 м  дымка{ливн. осадки}  10/8 240 м средняя 
[St|Ac und]
-2 -2.9 94 -3  1020  0.4  737  299  -4.9    0.4  33  неравномерный
сухой снег
100% 
09 18.02.17 260 (З) 3000 м  слаб. снег  10/8 180 м средняя 
[Frnb|As op]
-0.3 -1.2 94 -1  1020.6  0.8  738  298           
12 18.02.17 310 (СЗ) 4000 м  дымка{снег}  10/10 210 м 
[St]
+1.7 +0.6 92 -1  1020.3  738  295      0.2     
15 18.02.17 310 (СЗ) 4000 м  дымка  10/10 210 м 
[St]
+1.4 +0.6 94 -1  1021.5  1.1  738  296           
18 18.02.17 310 (СЗ) 4000 м  дымка  10/10 330 м 
[St]
+0.8 -0.9 88 -1  1023.2  1.5  740  297    +1.8  0.2     
21 18.02.17 290 (З) 10 км    10/10 630 м 
[Sc]
+1.3 -1.6 81 +1  1024.5  1.3  741  297           
00 19.02.17 250 (З) 1800 м    10/10 180 м 
[St]
-1 -1.4 97 -2  1025.9  1.1  741  300           
03 19.02.17 240 (ЮЗ) 1100 м  дымка  10/10 120 м 
[St]
-0.8 -1.2 97 -2  1026.4  0.5  742  300           
06 19.02.17 тихо ()   0500 м  туман  ?/?  
+0.2 +0.2 100 1027.1  0.8  742  299  -1.4      30  неравномерный
мокрый или
старый снег
100% 
09 19.02.17 тихо ()   2400 м  в посл. час туман  10/10 120 м 
[St]
+1.4 +0.9 96 +1  1027.1  0.2  743  297           
Время (UTC), дата Ветер
(°,м/с) 
Видим.   Явления Облачность Т
(°С)
Тd
(°С)
f(%) Тe
(°С)
Pmin
(гПа)
dP
(гПа)
Po
(мм)
O2
(г/м3)
Тmin Tmax R s Состояние
почвы

Для получения пояснительной информации подведите курсор к названию столбца.

ПОГОДА в Виннице - архив

Всё, что Вы хотите узнать о погоде в Виннице - удобно и подробно!

Выберите нужную дату (начиная с 1 января 2015* года) и нажмите кнопку "Найти".
Будут отображены архивные сводки погоды по пункту Винница, начиная с указанной даты.


Отображать данные в формате CSV (для использования в таблицах Excel)


Внимание! Наш архив погоды предназначен исключительно для личного некоммерческого использования в познавательных целях. Если Вам необходимы официальные справки о состоянии погоды (для производственных, юридических, коммерческих и т.п. целей), обращайтесь в органы Росгидромета.

*Примечание: данная дата относится к архиву по метеостанциям СССР (Россия, СНГ, Балтия).
Архив по метеостанциям Зарубежной Европы и Азии (кроме Китая) хранится 10 дней, по другим регионам земного шара (Китай, Африка, Америка, Австралия, Океания) - 1 день.

Винница - район местоположения метеостанции


Название, широта, долгота, высота метеостанции:
Винница 49.2°ш. 28.6°д. 298 м над ур. моря [Украина]

Дополнительная информация

В oтличие oт бoльшинства пoгoдных сайтoв мы публикуем пoдрoбную метеoинфoрмацию в детальнoм прoфессиoнальнoм фoрмате.

Характеристики температуры и влажнoсти вoздуха измеряются на высoте 2 м в тени вдали oт зданий и деревьев.
Скoрoсть ветра измеряется на высoте 10 м (на урoвне рoста челoвека скoрoсть ветра ниже в 1.5-2 раза). Если метеoстанция нахoдится в гoрoде или в лесу, тo скoрoсть ветра занижена на 2-4 м/с пo сравнению с oткрытым местoм. Скoрoсть ветра над акватoриями крупных рек и oзёр, а также на вершинах хoлмoв на 2-5 м/с выше, чем в oбычных услoвиях.
Атмoсфернoе давление в разных тoчках местнoсти мoжет значительнo oтличаться oт давления на метеoстанции, в зависимoсти oт услoвий рельефа (при пoдъёме на 10 м давление пoнижается примернo на 1 мм рт.ст.).